Retour au catalogue

FENGYUN 1C DEB

ActifPO
NORAD 37701·DEBRIS·🇨🇳 China

Lancé May 10, 1999 depuis Taiyuan Satellite Launch Center

Loading…

Prochains Passages (prochaines 24 heures)

TLE

VieillissantSource: Space-Track

Époque: Sep 11, 2026, 02:37 UTC

1 37701U 99025ELS 26254.10929778  .00004268  00000-0  21716-2 0  9994
2 37701  97.6462   6.2448 0247993 143.3018 343.5032 14.01548162798750

Suivez FENGYUN 1C DEB en temps réel avec AllMySat

Download on the App Store